Location: Balsareny
(41.8670°N, 1.8830°E)
Time: 23:19:19
(UTC+02:00)

X-37B - Pass Details

Date: 22 June 2021
Orbit: 383 x 392 km, 45.0° (Epoch: 01 July)

Event Time Altitude Azimuth Distance (km) Brightness Sun altitude
Exits shadow 05:15:24 - 283° (WNW) 2,058 3.9 -9.9°
Reaches altitude 10° 05:17:08 10° 272° (W) 1,404 3.0 -9.7°
Maximum altitude 05:19:51 27° 212° (SSW) 783 1.6 -9.3°
Drops below altitude 10° 05:22:34 10° 153° (SSE) 1,401 3.2 -8.9°
Sets 05:24:49 0° 140° (SE) 2,253 4.4 -8.6°
